Time,TemperatureF,DewpointF,PressureIn,WindDirection,WindDirectionDegrees,WindSpeedMPH,WindSpeedGustMPH,Humidity,HourlyPrecipIn,Conditions,Clouds,dailyrainin,SoftwareType,DateUTC
2013-05-19 00:00:00,70.3,59.2,29.83,South,171,0.0,0.0,68,0.00,,,0.00,VWS V14.01,2013-05-18 22:00:00,
2013-05-19 00:05:00,70.2,59.6,29.83,South,171,0.0,1.0,69,0.00,,,0.00,VWS V14.01,2013-05-18 22:05:00,
2013-05-19 00:10:00,70.0,59.4,29.84,South,171,0.0,1.0,69,0.00,,,0.00,VWS V14.01,2013-05-18 22:10:00,
2013-05-19 00:15:00,69.8,59.2,29.83,South,171,0.0,1.0,69,0.00,,,0.00,VWS V14.01,2013-05-18 22:15:00,
2013-05-19 00:20:00,70.0,59.4,29.83,South,171,0.0,1.0,69,0.00,,,0.00,VWS V14.01,2013-05-18 22:20:00,
2013-05-19 00:25:00,70.3,60.1,29.83,South,171,2.0,2.0,70,0.00,,,0.00,VWS V14.01,2013-05-18 22:25:00,
2013-05-19 00:30:00,70.4,60.2,29.83,South,171,0.0,2.0,70,0.00,,,0.00,VWS V14.01,2013-05-18 22:30:00,
2013-05-19 00:35:00,70.5,60.3,29.83,South,171,0.0,3.0,70,0.00,,,0.00,VWS V14.01,2013-05-18 22:35:00,
2013-05-19 00:40:00,70.4,60.2,29.82,South,171,0.0,3.0,70,0.00,,,0.00,VWS V14.01,2013-05-18 22:40:00,
2013-05-19 00:45:00,70.4,60.2,29.82,South,171,0.0,2.0,70,0.00,,,0.00,VWS V14.01,2013-05-18 22:45:00,
2013-05-19 00:50:00,70.4,59.8,29.82,South,171,1.0,2.0,69,0.00,,,0.00,VWS V14.01,2013-05-18 22:50:00,
2013-05-19 00:55:00,70.7,60.0,29.81,South,171,0.0,2.0,69,0.00,,,0.00,VWS V14.01,2013-05-18 22:55:00,
2013-05-19 01:00:00,70.6,59.5,29.81,South,171,0.0,2.0,68,0.00,,,0.00,VWS V14.01,2013-05-18 23:00:00,
2013-05-19 01:05:00,70.7,59.2,29.80,SSE,164,4.0,4.0,67,0.00,,,0.00,VWS V14.01,2013-05-18 23:05:00,
2013-05-19 01:10:00,71.8,59.0,29.80,ESE,102,7.0,9.0,64,0.00,,,0.00,VWS V14.01,2013-05-18 23:10:00,
2013-05-19 01:15:00,72.7,58.9,29.80,ESE,104,8.0,12.0,62,0.00,,,0.00,VWS V14.01,2013-05-18 23:15:00,
2013-05-19 01:20:00,73.2,58.0,29.81,SE,129,5.0,13.0,59,0.00,,,0.00,VWS V14.01,2013-05-18 23:20:00,
2013-05-19 01:25:00,73.7,57.0,29.81,SE,130,8.0,10.0,56,0.00,,,0.00,VWS V14.01,2013-05-18 23:25:00,
2013-05-19 01:30:00,74.5,56.3,29.81,ESE,109,7.0,13.0,53,0.00,,,0.00,VWS V14.01,2013-05-18 23:30:00,
2013-05-19 01:35:00,74.6,55.8,29.81,ESE,121,7.0,10.0,52,0.00,,,0.00,VWS V14.01,2013-05-18 23:35:00,
2013-05-19 01:40:00,74.8,55.5,29.80,ESE,123,4.0,13.0,51,0.00,,,0.00,VWS V14.01,2013-05-18 23:40:00,
2013-05-19 01:45:00,74.8,54.9,29.81,SSE,148,4.0,10.0,50,0.00,,,0.00,VWS V14.01,2013-05-18 23:45:00,
2013-05-19 01:50:00,74.7,55.4,29.81,South,169,7.0,14.0,51,0.00,,,0.00,VWS V14.01,2013-05-18 23:50:00,
2013-05-19 01:55:00,74.3,56.1,29.81,SSE,158,6.0,10.0,53,0.00,,,0.00,VWS V14.01,2013-05-18 23:55:00,
2013-05-19 02:00:00,73.6,57.9,29.81,SSW,201,5.0,10.0,58,0.00,,,0.00,VWS V14.01,2013-05-19 00:00:00,
2013-05-19 02:05:00,72.7,58.9,29.81,SW,227,2.0,5.0,62,0.00,,,0.00,VWS V14.01,2013-05-19 00:05:00,
2013-05-19 02:10:00,71.9,59.5,29.81,SW,218,4.0,5.0,65,0.00,,,0.00,VWS V14.01,2013-05-19 00:10:00,
2013-05-19 02:15:00,71.4,59.9,29.81,SW,222,2.0,9.0,67,0.00,,,0.00,VWS V14.01,2013-05-19 00:15:00,
2013-05-19 02:20:00,71.2,60.1,29.81,SW,217,3.0,9.0,68,0.00,,,0.00,VWS V14.01,2013-05-19 00:20:00,
2013-05-19 02:25:00,71.0,60.3,29.82,SW,232,3.0,7.0,69,0.00,,,0.00,VWS V14.01,2013-05-19 00:25:00,
2013-05-19 02:30:00,70.9,60.6,29.81,South,191,7.0,8.0,70,0.00,,,0.00,VWS V14.01,2013-05-19 00:30:00,
2013-05-19 02:35:00,70.7,61.2,29.81,SSE,153,7.0,9.0,72,0.00,,,0.00,VWS V14.01,2013-05-19 00:35:00,
2013-05-19 02:40:00,70.6,61.1,29.81,South,182,7.0,14.0,72,0.00,,,0.00,VWS V14.01,2013-05-19 00:40:00,
2013-05-19 02:45:00,70.6,61.5,29.81,South,185,5.0,11.0,73,0.00,,,0.00,VWS V14.01,2013-05-19 00:45:00,
2013-05-19 02:50:00,70.4,61.7,29.81,SSE,161,8.0,11.0,74,0.00,,,0.00,VWS V14.01,2013-05-19 00:50:00,
2013-05-19 02:55:00,70.3,61.6,29.81,South,178,5.0,13.0,74,0.00,,,0.00,VWS V14.01,2013-05-19 00:55:00,
2013-05-19 03:00:00,70.1,61.8,29.81,South,190,6.0,13.0,75,0.00,,,0.00,VWS V14.01,2013-05-19 01:00:00,
2013-05-19 03:05:00,69.8,61.9,29.82,South,184,6.0,9.0,76,0.00,,,0.00,VWS V14.01,2013-05-19 01:05:00,
2013-05-19 03:10:00,69.6,62.1,29.82,SW,236,2.0,11.0,77,0.00,,,0.00,VWS V14.01,2013-05-19 01:10:00,
2013-05-19 03:15:00,69.4,62.2,29.82,SSW,204,9.0,11.0,78,0.00,,,0.00,VWS V14.01,2013-05-19 01:15:00,
2013-05-19 03:20:00,69.1,62.3,29.82,SW,219,9.0,11.0,79,0.00,,,0.00,VWS V14.01,2013-05-19 01:20:00,
2013-05-19 03:25:00,68.9,62.8,29.82,SW,220,5.0,8.0,81,0.00,,,0.00,VWS V14.01,2013-05-19 01:25:00,
2013-05-19 03:30:00,68.7,62.6,29.82,SW,234,0.0,8.0,81,0.00,,,0.00,VWS V14.01,2013-05-19 01:30:00,
2013-05-19 03:35:00,68.5,62.8,29.82,SW,215,1.0,8.0,82,0.00,,,0.00,VWS V14.01,2013-05-19 01:35:00,
2013-05-19 03:40:00,68.3,62.9,29.82,SW,215,1.0,8.0,83,0.00,,,0.00,VWS V14.01,2013-05-19 01:40:00,
2013-05-19 03:45:00,68.2,62.8,29.82,SW,229,3.0,6.0,83,0.00,,,0.00,VWS V14.01,2013-05-19 01:45:00,
2013-05-19 03:50:00,68.1,63.1,29.82,SW,232,1.0,6.0,84,0.00,,,0.00,VWS V14.01,2013-05-19 01:50:00,
2013-05-19 03:55:00,68.0,63.0,29.82,SW,232,0.0,0.0,84,0.00,,,0.00,VWS V14.01,2013-05-19 01:55:00,
2013-05-19 04:00:00,67.9,62.9,29.82,SW,232,0.0,2.0,84,0.00,,,0.00,VWS V14.01,2013-05-19 02:00:00,
2013-05-19 04:05:00,67.8,62.8,29.82,SW,232,1.0,1.0,84,0.00,,,0.00,VWS V14.01,2013-05-19 02:05:00,
2013-05-19 04:10:00,67.6,62.6,29.82,SW,232,2.0,2.0,84,0.00,,,0.00,VWS V14.01,2013-05-19 02:10:00,
2013-05-19 04:15:00,67.3,62.3,29.82,SW,232,2.0,2.0,84,0.00,,,0.00,VWS V14.01,2013-05-19 02:15:00,
2013-05-19 04:20:00,67.3,62.0,29.82,SW,232,0.0,3.0,83,0.00,,,0.00,VWS V14.01,2013-05-19 02:20:00,
2013-05-19 04:25:00,67.3,62.0,29.83,WSW,252,3.0,5.0,83,0.00,,,0.00,VWS V14.01,2013-05-19 02:25:00,
2013-05-19 04:30:00,67.4,62.1,29.83,West,259,2.0,6.0,83,0.00,,,0.00,VWS V14.01,2013-05-19 02:30:00,
2013-05-19 04:35:00,67.3,61.6,29.83,West,261,2.0,4.0,82,0.00,,,0.00,VWS V14.01,2013-05-19 02:35:00,
2013-05-19 04:40:00,67.2,61.5,29.82,West,263,1.0,4.0,82,0.00,,,0.00,VWS V14.01,2013-05-19 02:40:00,
2013-05-19 04:45:00,67.1,61.4,29.83,West,262,0.0,2.0,82,0.00,,,0.00,VWS V14.01,2013-05-19 02:45:00,
2013-05-19 04:50:00,67.0,61.3,29.83,West,263,3.0,3.0,82,0.00,,,0.00,VWS V14.01,2013-05-19 02:50:00,
2013-05-19 04:55:00,66.9,61.2,29.83,West,263,0.0,2.0,82,0.00,,,0.00,VWS V14.01,2013-05-19 02:55:00,
2013-05-19 05:00:00,66.9,61.2,29.83,West,263,3.0,3.0,82,0.00,,,0.00,VWS V14.01,2013-05-19 03:00:00,
2013-05-19 05:05:00,66.9,61.2,29.83,West,263,1.0,2.0,82,0.00,,,0.00,VWS V14.01,2013-05-19 03:05:00,
2013-05-19 05:10:00,66.8,61.1,29.83,West,263,3.0,3.0,82,0.00,,,0.00,VWS V14.01,2013-05-19 03:10:00,
2013-05-19 05:15:00,66.7,61.4,29.83,West,263,2.0,3.0,83,0.00,,,0.00,VWS V14.01,2013-05-19 03:15:00,
2013-05-19 05:20:00,66.6,61.3,29.83,West,263,2.0,5.0,83,0.00,,,0.00,VWS V14.01,2013-05-19 03:20:00,
2013-05-19 05:25:00,66.5,61.2,29.83,West,263,5.0,5.0,83,0.00,,,0.00,VWS V14.01,2013-05-19 03:25:00,
2013-05-19 05:30:00,66.4,61.1,29.83,West,265,0.0,7.0,83,0.00,,,0.00,VWS V14.01,2013-05-19 03:30:00,
2013-05-19 05:35:00,66.3,61.0,29.83,West,265,2.0,3.0,83,0.00,,,0.00,VWS V14.01,2013-05-19 03:35:00,
2013-05-19 05:40:00,66.3,61.3,29.83,West,265,4.0,5.0,84,0.00,,,0.00,VWS V14.01,2013-05-19 03:40:00,
2013-05-19 05:45:00,66.2,61.2,29.83,West,265,6.0,6.0,84,0.00,,,0.00,VWS V14.01,2013-05-19 03:45:00,
2013-05-19 05:50:00,66.2,61.6,29.84,West,271,10.0,10.0,85,0.00,,,0.00,VWS V14.01,2013-05-19 03:50:00,
2013-05-19 05:55:00,66.2,61.9,29.84,West,274,5.0,11.0,86,0.00,,,0.00,VWS V14.01,2013-05-19 03:55:00,
2013-05-19 06:00:00,66.1,61.8,29.84,WSW,244,5.0,11.0,86,0.00,,,0.00,VWS V14.01,2013-05-19 04:00:00,
2013-05-19 06:01:00,66.1,61.8,29.84,West,265,6.0,11.0,86,0.00,,,0.00,VWS V14.01,2013-05-19 04:01:00,
2013-05-19 06:06:00,66.1,62.1,29.85,WSW,246,8.0,11.0,87,0.00,,,0.00,VWS V14.01,2013-05-19 04:06:00,
2013-05-19 06:10:00,66.2,62.2,29.85,West,266,4.0,13.0,87,0.00,,,0.00,VWS V14.01,2013-05-19 04:10:00,
2013-05-19 06:11:00,66.2,62.2,29.85,West,269,7.0,13.0,87,0.00,,,0.00,VWS V14.01,2013-05-19 04:11:00,
2013-05-19 06:16:00,66.2,62.2,29.85,West,275,8.0,8.0,87,0.00,,,0.00,VWS V14.01,2013-05-19 04:16:00,
2013-05-19 06:20:00,66.3,62.3,29.86,West,267,9.0,14.0,87,0.00,,,0.00,VWS V14.01,2013-05-19 04:20:00,
2013-05-19 06:21:00,66.2,62.2,29.86,West,259,6.0,14.0,87,0.00,,,0.00,VWS V14.01,2013-05-19 04:21:00,
2013-05-19 06:26:00,66.3,62.3,29.87,West,265,4.0,12.0,87,0.00,,,0.00,VWS V14.01,2013-05-19 04:26:00,
2013-05-19 06:30:00,66.4,62.4,29.86,West,266,9.0,12.0,87,0.00,,,0.00,VWS V14.01,2013-05-19 04:30:00,
2013-05-19 06:31:00,66.4,62.4,29.87,West,269,9.0,12.0,87,0.00,,,0.00,VWS V14.01,2013-05-19 04:31:00,
2013-05-19 06:36:00,66.4,62.4,29.87,West,259,9.0,12.0,87,0.00,,,0.00,VWS V14.01,2013-05-19 04:36:00,
2013-05-19 06:40:00,66.4,62.4,29.87,WSW,251,2.0,12.0,87,0.00,,,0.00,VWS V14.01,2013-05-19 04:40:00,
2013-05-19 06:41:00,66.4,62.4,29.87,WSW,244,4.0,12.0,87,0.00,,,0.00,VWS V14.01,2013-05-19 04:41:00,
2013-05-19 06:46:00,66.4,62.7,29.88,West,263,10.0,10.0,88,0.00,,,0.00,VWS V14.01,2013-05-19 04:46:00,
2013-05-19 06:50:00,66.4,62.7,29.87,WSW,254,3.0,12.0,88,0.00,,,0.00,VWS V14.01,2013-05-19 04:50:00,
2013-05-19 06:51:00,66.4,62.7,29.87,West,272,5.0,12.0,88,0.00,,,0.00,VWS V14.01,2013-05-19 04:51:00,
2013-05-19 06:56:00,66.4,62.7,29.88,West,275,9.0,11.0,88,0.00,,,0.00,VWS V14.01,2013-05-19 04:56:00,
2013-05-19 07:00:00,66.4,62.7,29.88,WNW,284,11.0,13.0,88,0.00,,,0.00,VWS V14.01,2013-05-19 05:00:00,
2013-05-19 07:01:00,66.4,62.7,29.88,WNW,285,4.0,13.0,88,0.00,,,0.00,VWS V14.01,2013-05-19 05:01:00,
2013-05-19 07:06:00,66.2,62.2,29.88,West,281,12.0,12.0,87,0.00,,,0.00,VWS V14.01,2013-05-19 05:06:00,
2013-05-19 07:10:00,66.3,62.3,29.88,NW,305,5.0,12.0,87,0.00,,,0.00,VWS V14.01,2013-05-19 05:10:00,
2013-05-19 07:11:00,66.3,62.3,29.88,West,275,3.0,12.0,87,0.00,,,0.00,VWS V14.01,2013-05-19 05:11:00,
2013-05-19 07:16:00,66.2,62.2,29.89,WNW,285,6.0,11.0,87,0.00,,,0.00,VWS V14.01,2013-05-19 05:16:00,
2013-05-19 07:20:00,66.1,62.1,29.89,WNW,293,4.0,11.0,87,0.00,,,0.00,VWS V14.01,2013-05-19 05:20:00,
2013-05-19 07:21:00,66.1,62.1,29.89,West,278,6.0,11.0,87,0.00,,,0.00,VWS V14.01,2013-05-19 05:21:00,
2013-05-19 07:26:00,65.9,61.9,29.89,NW,308,8.0,15.0,87,0.00,,,0.00,VWS V14.01,2013-05-19 05:26:00,
2013-05-19 07:30:00,65.6,61.6,29.89,NW,304,8.0,15.0,87,0.00,,,0.00,VWS V14.01,2013-05-19 05:30:00,
2013-05-19 07:31:00,65.6,61.6,29.89,WNW,292,11.0,15.0,87,0.00,,,0.00,VWS V14.01,2013-05-19 05:31:00,
2013-05-19 07:36:00,65.7,61.7,29.89,WNW,298,3.0,8.0,87,0.00,,,0.00,VWS V14.01,2013-05-19 05:36:00,
2013-05-19 07:40:00,65.8,61.5,29.89,North,351,5.0,8.0,86,0.00,,,0.00,VWS V14.01,2013-05-19 05:40:00,
2013-05-19 07:41:00,65.8,61.5,29.89,NW,304,2.0,8.0,86,0.00,,,0.00,VWS V14.01,2013-05-19 05:41:00,
2013-05-19 07:46:00,65.8,61.5,29.89,WNW,296,8.0,9.0,86,0.00,,,0.00,VWS V14.01,2013-05-19 05:46:00,
2013-05-19 07:50:00,65.8,61.5,29.89,NW,323,5.0,9.0,86,0.00,,,0.00,VWS V14.01,2013-05-19 05:50:00,
2013-05-19 07:51:00,65.8,61.5,29.89,WNW,298,3.0,9.0,86,0.00,,,0.00,VWS V14.01,2013-05-19 05:51:00,
2013-05-19 07:56:00,65.9,61.6,29.89,WNW,295,6.0,6.0,86,0.00,,,0.00,VWS V14.01,2013-05-19 05:56:00,
2013-05-19 08:00:00,65.8,61.8,29.89,WNW,296,2.0,9.0,87,0.00,,,0.00,VWS V14.01,2013-05-19 06:00:00,
2013-05-19 08:01:00,65.8,61.8,29.90,WNW,302,6.0,9.0,87,0.00,,,0.00,VWS V14.01,2013-05-19 06:01:00,
2013-05-19 08:06:00,65.9,61.9,29.90,WNW,283,6.0,9.0,87,0.00,,,0.00,VWS V14.01,2013-05-19 06:06:00,
2013-05-19 08:10:00,66.0,62.0,29.90,WNW,292,11.0,12.0,87,0.00,,,0.00,VWS V14.01,2013-05-19 06:10:00,
2013-05-19 08:11:00,66.0,61.7,29.90,NW,304,7.0,11.0,86,0.00,,,0.00,VWS V14.01,2013-05-19 06:11:00,
2013-05-19 08:16:00,66.2,62.2,29.90,WNW,284,6.0,12.0,87,0.00,,,0.00,VWS V14.01,2013-05-19 06:16:00,
2013-05-19 08:20:00,66.0,61.4,29.90,WNW,294,14.0,18.0,85,0.00,,,0.00,VWS V14.01,2013-05-19 06:20:00,
2013-05-19 08:21:00,66.1,61.8,29.90,WNW,289,12.0,18.0,86,0.00,,,0.00,VWS V14.01,2013-05-19 06:21:00,
2013-05-19 08:26:00,65.7,60.7,29.91,NW,307,10.0,15.0,84,0.00,,,0.00,VWS V14.01,2013-05-19 06:26:00,
2013-05-19 08:30:00,65.6,60.6,29.91,West,269,12.0,15.0,84,0.00,,,0.00,VWS V14.01,2013-05-19 06:30:00,
2013-05-19 08:31:00,65.6,60.6,29.91,WNW,292,7.0,15.0,84,0.00,,,0.00,VWS V14.01,2013-05-19 06:31:00,
2013-05-19 08:36:00,65.6,60.3,29.91,WNW,286,11.0,16.0,83,0.00,,,0.00,VWS V14.01,2013-05-19 06:36:00,
2013-05-19 08:40:00,65.9,59.6,29.92,NW,308,16.0,18.0,80,0.00,,,0.00,VWS V14.01,2013-05-19 06:40:00,
2013-05-19 08:41:00,65.7,59.7,29.92,WNW,286,9.0,18.0,81,0.00,,,0.00,VWS V14.01,2013-05-19 06:41:00,
2013-05-19 08:46:00,66.1,59.4,29.92,West,269,16.0,19.0,79,0.00,,,0.00,VWS V14.01,2013-05-19 06:46:00,
2013-05-19 08:50:00,66.0,59.7,29.92,WSW,243,7.0,19.0,80,0.00,,,0.00,VWS V14.01,2013-05-19 06:50:00,
2013-05-19 08:51:00,66.0,59.7,29.92,West,264,1.0,19.0,80,0.00,,,0.00,VWS V14.01,2013-05-19 06:51:00,
2013-05-19 08:56:00,65.7,59.4,29.92,West,281,7.0,14.0,80,0.00,,,0.00,VWS V14.01,2013-05-19 06:56:00,
2013-05-19 09:00:00,65.3,59.3,29.92,WNW,288,8.0,14.0,81,0.00,,,0.00,VWS V14.01,2013-05-19 07:00:00,
2013-05-19 09:01:00,65.3,59.7,29.92,WSW,254,6.0,14.0,82,0.00,,,0.00,VWS V14.01,2013-05-19 07:01:00,
2013-05-19 09:06:00,65.1,59.1,29.93,West,274,12.0,21.0,81,0.00,,,0.00,VWS V14.01,2013-05-19 07:06:00,
2013-05-19 09:10:00,65.0,59.4,29.93,West,272,21.0,21.0,82,0.00,,,0.00,VWS V14.01,2013-05-19 07:10:00,
2013-05-19 09:11:00,64.9,58.9,29.93,West,277,8.0,21.0,81,0.00,,,0.00,VWS V14.01,2013-05-19 07:11:00,
2013-05-19 09:16:00,65.0,59.0,29.94,WNW,292,19.0,22.0,81,0.00,,,0.00,VWS V14.01,2013-05-19 07:16:00,
2013-05-19 09:20:00,65.0,59.0,29.94,West,267,13.0,22.0,81,0.00,,,0.00,VWS V14.01,2013-05-19 07:20:00,
2013-05-19 09:21:00,64.9,58.9,29.93,West,279,15.0,22.0,81,0.00,,,0.00,VWS V14.01,2013-05-19 07:21:00,
2013-05-19 09:26:00,65.5,59.2,29.94,West,267,17.0,19.0,80,0.00,,,0.00,VWS V14.01,2013-05-19 07:26:00,
2013-05-19 09:30:00,66.3,59.6,29.94,WNW,286,16.0,21.0,79,0.00,,,0.00,VWS V14.01,2013-05-19 07:30:00,
2013-05-19 09:31:00,66.2,59.5,29.94,NNW,342,9.0,21.0,79,0.00,,,0.00,VWS V14.01,2013-05-19 07:31:00,
2013-05-19 09:36:00,65.7,57.9,29.94,WNW,292,16.0,22.0,76,0.00,,,0.00,VWS V14.01,2013-05-19 07:36:00,
2013-05-19 09:40:00,65.3,57.2,29.94,NW,312,14.0,24.0,75,0.00,,,0.00,VWS V14.01,2013-05-19 07:40:00,
2013-05-19 09:41:00,65.5,57.4,29.94,WNW,295,14.0,22.0,75,0.00,,,0.00,VWS V14.01,2013-05-19 07:41:00,
2013-05-19 09:46:00,65.5,57.7,29.94,NW,321,11.0,28.0,76,0.00,,,0.00,VWS V14.01,2013-05-19 07:46:00,
2013-05-19 09:50:00,65.7,58.7,29.94,WNW,295,17.0,28.0,78,0.00,,,0.00,VWS V14.01,2013-05-19 07:50:00,
2013-05-19 09:51:00,65.4,58.4,29.94,WNW,288,12.0,28.0,78,0.00,,,0.00,VWS V14.01,2013-05-19 07:51:00,
2013-05-19 09:56:00,65.4,57.7,29.94,WNW,290,18.0,26.0,76,0.00,,,0.00,VWS V14.01,2013-05-19 07:56:00,
2013-05-19 10:00:00,66.0,57.5,29.94,WNW,284,13.0,26.0,74,0.00,,,0.00,VWS V14.01,2013-05-19 08:00:00,
2013-05-19 10:01:00,65.6,56.7,29.94,WNW,286,15.0,26.0,73,0.00,,,0.00,VWS V14.01,2013-05-19 08:01:00,
2013-05-19 10:06:00,66.0,56.3,29.94,WNW,302,13.0,23.0,71,0.00,,,0.00,VWS V14.01,2013-05-19 08:06:00,
2013-05-19 10:10:00,66.7,56.6,29.94,WNW,294,10.0,24.0,70,0.00,,,0.00,VWS V14.01,2013-05-19 08:10:00,
2013-05-19 10:11:00,66.3,55.8,29.94,WNW,293,9.0,24.0,69,0.00,,,0.00,VWS V14.01,2013-05-19 08:11:00,
2013-05-19 10:16:00,67.0,56.5,29.94,WNW,299,11.0,21.0,69,0.00,,,0.00,VWS V14.01,2013-05-19 08:16:00,
2013-05-19 10:20:00,67.4,57.7,29.94,West,275,10.0,21.0,71,0.00,,,0.00,VWS V14.01,2013-05-19 08:20:00,
2013-05-19 10:21:00,67.2,57.5,29.94,NW,323,5.0,21.0,71,0.00,,,0.00,VWS V14.01,2013-05-19 08:21:00,
2013-05-19 10:26:00,66.6,56.5,29.95,NW,326,8.0,28.0,70,0.00,,,0.00,VWS V14.01,2013-05-19 08:26:00,
2013-05-19 10:30:00,65.8,56.2,29.95,West,273,18.0,28.0,71,0.00,,,0.00,VWS V14.01,2013-05-19 08:30:00,
2013-05-19 10:31:00,66.0,56.0,29.95,West,281,16.0,28.0,70,0.00,,,0.00,VWS V14.01,2013-05-19 08:31:00,
2013-05-19 10:36:00,66.6,56.9,29.95,NW,322,3.0,18.0,71,0.00,,,0.00,VWS V14.01,2013-05-19 08:36:00,
2013-05-19 10:40:00,65.7,55.7,29.95,West,268,16.0,28.0,70,0.00,,,0.00,VWS V14.01,2013-05-19 08:40:00,
2013-05-19 10:41:00,66.0,56.3,29.95,West,281,17.0,24.0,71,0.00,,,0.00,VWS V14.01,2013-05-19 08:41:00,
2013-05-19 10:46:00,65.5,55.9,29.96,West,277,17.0,24.0,71,0.00,,,0.00,VWS V14.01,2013-05-19 08:46:00,
2013-05-19 10:50:00,65.3,56.0,29.96,WNW,284,15.0,28.0,72,0.00,,,0.00,VWS V14.01,2013-05-19 08:50:00,
2013-05-19 10:51:00,65.0,55.8,29.96,NW,323,11.0,28.0,72,0.00,,,0.00,VWS V14.01,2013-05-19 08:51:00,
2013-05-19 10:56:00,66.1,55.7,29.96,WSW,246,16.0,23.0,69,0.00,,,0.00,VWS V14.01,2013-05-19 08:56:00,
2013-05-19 11:00:00,65.7,55.7,29.97,West,259,12.0,24.0,70,0.00,,,0.00,VWS V14.01,2013-05-19 09:00:00,
2013-05-19 11:01:00,65.5,55.5,29.97,NW,306,8.0,24.0,70,0.00,,,0.00,VWS V14.01,2013-05-19 09:01:00,
2013-05-19 11:06:00,65.8,55.4,29.97,West,268,16.0,23.0,69,0.00,,,0.00,VWS V14.01,2013-05-19 09:06:00,
2013-05-19 11:10:00,65.7,55.3,29.97,WNW,288,15.0,23.0,69,0.00,,,0.00,VWS V14.01,2013-05-19 09:10:00,
2013-05-19 11:11:00,66.0,56.0,29.97,WNW,296,11.0,23.0,70,0.00,,,0.00,VWS V14.01,2013-05-19 09:11:00,
2013-05-19 11:16:00,65.3,54.5,29.97,WNW,284,19.0,28.0,68,0.00,,,0.00,VWS V14.01,2013-05-19 09:16:00,
2013-05-19 11:20:00,66.0,55.2,29.97,West,271,11.0,28.0,68,0.00,,,0.00,VWS V14.01,2013-05-19 09:20:00,
2013-05-19 11:21:00,65.7,54.9,29.97,West,280,3.0,28.0,68,0.00,,,0.00,VWS V14.01,2013-05-19 09:21:00,
2013-05-19 11:26:00,65.9,55.0,29.97,West,275,8.0,20.0,68,0.00,,,0.00,VWS V14.01,2013-05-19 09:26:00,
2013-05-19 11:30:00,65.8,56.2,29.98,WNW,288,5.0,24.0,71,0.00,,,0.00,VWS V14.01,2013-05-19 09:30:00,
2013-05-19 11:31:00,65.5,55.5,29.98,NW,319,6.0,24.0,70,0.00,,,0.00,VWS V14.01,2013-05-19 09:31:00,
2013-05-19 11:36:00,65.3,55.7,29.98,NW,311,8.0,23.0,71,0.00,,,0.00,VWS V14.01,2013-05-19 09:36:00,
2013-05-19 11:40:00,65.2,55.2,29.98,WNW,296,15.0,26.0,70,0.00,,,0.00,VWS V14.01,2013-05-19 09:40:00,
2013-05-19 11:41:00,65.5,56.2,29.98,West,277,10.0,26.0,72,0.00,,,0.00,VWS V14.01,2013-05-19 09:41:00,
2013-05-19 11:46:00,65.5,55.1,29.98,West,269,24.0,24.0,69,0.00,,,0.00,VWS V14.01,2013-05-19 09:46:00,
2013-05-19 11:50:00,64.8,53.6,29.98,WNW,289,9.0,26.0,67,0.00,,,0.00,VWS V14.01,2013-05-19 09:50:00,
2013-05-19 11:51:00,65.0,53.4,29.98,WNW,291,18.0,26.0,66,0.00,,,0.00,VWS V14.01,2013-05-19 09:51:00,
2013-05-19 11:56:00,65.5,54.7,29.98,WNW,286,19.0,25.0,68,0.00,,,0.00,VWS V14.01,2013-05-19 09:56:00,
2013-05-19 12:00:00,65.5,54.7,29.98,West,277,21.0,29.0,68,0.00,,,0.00,VWS V14.01,2013-05-19 10:00:00,
2013-05-19 12:01:00,65.7,54.9,29.98,WNW,288,21.0,29.0,68,0.00,,,0.00,VWS V14.01,2013-05-19 10:01:00,
2013-05-19 12:06:00,65.4,54.2,29.98,WNW,298,10.0,25.0,67,0.00,,,0.00,VWS V14.01,2013-05-19 10:06:00,
2013-05-19 12:10:00,66.1,55.7,29.98,WNW,289,23.0,25.0,69,0.00,,,0.00,VWS V14.01,2013-05-19 10:10:00,
2013-05-19 12:11:00,65.8,55.4,29.98,NNW,338,7.0,25.0,69,0.00,,,0.00,VWS V14.01,2013-05-19 10:11:00,
2013-05-19 12:16:00,65.5,55.5,29.99,NW,304,9.0,24.0,70,0.00,,,0.00,VWS V14.01,2013-05-19 10:16:00,
2013-05-19 12:20:00,65.7,55.7,29.98,WNW,290,11.0,25.0,70,0.00,,,0.00,VWS V14.01,2013-05-19 10:20:00,
2013-05-19 12:21:00,65.3,55.3,29.99,WNW,295,7.0,24.0,70,0.00,,,0.00,VWS V14.01,2013-05-19 10:21:00,
2013-05-19 12:26:00,66.1,55.7,29.99,WNW,298,22.0,22.0,69,0.00,,,0.00,VWS V14.01,2013-05-19 10:26:00,
2013-05-19 12:30:00,65.9,55.0,29.99,West,272,11.0,22.0,68,0.00,,,0.00,VWS V14.01,2013-05-19 10:30:00,
2013-05-19 12:31:00,66.1,55.2,29.99,West,265,12.0,22.0,68,0.00,,,0.00,VWS V14.01,2013-05-19 10:31:00,
2013-05-19 12:36:00,65.5,54.3,29.99,WNW,302,14.0,22.0,67,0.00,,,0.00,VWS V14.01,2013-05-19 10:36:00,
2013-05-19 12:40:00,64.9,54.5,29.99,WNW,284,20.0,23.0,69,0.00,,,0.00,VWS V14.01,2013-05-19 10:40:00,
2013-05-19 12:41:00,64.9,54.1,29.99,West,269,16.0,23.0,68,0.00,,,0.00,VWS V14.01,2013-05-19 10:41:00,
2013-05-19 12:46:00,65.2,54.4,29.99,WNW,299,10.0,25.0,68,0.00,,,0.00,VWS V14.01,2013-05-19 10:46:00,
2013-05-19 12:50:00,65.8,55.4,29.99,West,278,17.0,25.0,69,0.00,,,0.00,VWS V14.01,2013-05-19 10:50:00,
2013-05-19 12:51:00,65.4,55.4,29.99,WNW,286,3.0,25.0,70,0.00,,,0.00,VWS V14.01,2013-05-19 10:51:00,
2013-05-19 12:56:00,65.0,54.2,29.99,West,267,11.0,22.0,68,0.00,,,0.00,VWS V14.01,2013-05-19 10:56:00,
2013-05-19 13:00:00,65.1,53.9,29.99,WNW,295,16.0,23.0,67,0.00,,,0.00,VWS V14.01,2013-05-19 11:00:00,
2013-05-19 13:01:00,65.2,54.0,29.99,WNW,296,19.0,23.0,67,0.00,,,0.00,VWS V14.01,2013-05-19 11:01:00,
2013-05-19 13:06:00,65.3,54.5,29.99,NW,325,8.0,20.0,68,0.00,,,0.00,VWS V14.01,2013-05-19 11:06:00,
2013-05-19 13:10:00,65.8,55.0,30.00,West,279,16.0,22.0,68,0.00,,,0.00,VWS V14.01,2013-05-19 11:10:00,
2013-05-19 13:11:00,65.8,55.0,29.99,West,274,12.0,22.0,68,0.00,,,0.00,VWS V14.01,2013-05-19 11:11:00,
2013-05-19 13:16:00,65.5,54.7,30.00,WNW,294,10.0,19.0,68,0.00,,,0.00,VWS V14.01,2013-05-19 11:16:00,
2013-05-19 13:20:00,65.6,54.8,30.00,NNW,327,7.0,19.0,68,0.00,,,0.00,VWS V14.01,2013-05-19 11:20:00,
2013-05-19 13:21:00,65.7,55.3,30.00,NW,314,11.0,19.0,69,0.00,,,0.00,VWS V14.01,2013-05-19 11:21:00,
2013-05-19 13:27:00,66.0,55.2,30.00,WNW,290,6.0,22.0,68,0.00,,,0.00,VWS V14.01,2013-05-19 11:27:00,
2013-05-19 13:30:00,65.7,54.9,30.00,West,279,12.0,22.0,68,0.00,,,0.00,VWS V14.01,2013-05-19 11:30:00,
2013-05-19 13:32:00,65.9,55.0,30.00,West,279,21.0,22.0,68,0.00,,,0.00,VWS V14.01,2013-05-19 11:32:00,
2013-05-19 13:37:00,66.1,54.4,30.00,WSW,257,16.0,17.0,66,0.00,,,0.00,VWS V14.01,2013-05-19 11:37:00,
2013-05-19 13:40:00,65.8,54.1,30.00,West,273,15.0,22.0,66,0.00,,,0.00,VWS V14.01,2013-05-19 11:40:00,
2013-05-19 13:42:00,65.8,53.7,30.00,WNW,299,15.0,22.0,65,0.00,,,0.00,VWS V14.01,2013-05-19 11:42:00,
2013-05-19 13:47:00,66.6,55.3,30.00,NW,319,9.0,18.0,67,0.00,,,0.00,VWS V14.01,2013-05-19 11:47:00,
2013-05-19 13:50:00,67.4,56.1,30.00,West,278,11.0,20.0,67,0.00,,,0.00,VWS V14.01,2013-05-19 11:50:00,
2013-05-19 13:52:00,67.3,56.0,30.00,NW,304,11.0,20.0,67,0.00,,,0.00,VWS V14.01,2013-05-19 11:52:00,
2013-05-19 13:57:00,65.5,53.8,30.00,WNW,285,15.0,26.0,66,0.00,,,0.00,VWS V14.01,2013-05-19 11:57:00,
2013-05-19 14:00:00,65.8,54.5,30.00,WNW,288,11.0,26.0,67,0.00,,,0.00,VWS V14.01,2013-05-19 12:00:00,
2013-05-19 14:02:00,65.7,54.0,30.00,WNW,298,18.0,26.0,66,0.00,,,0.00,VWS V14.01,2013-05-19 12:02:00,
2013-05-19 14:07:00,66.3,55.0,30.01,West,269,19.0,21.0,67,0.00,,,0.00,VWS V14.01,2013-05-19 12:07:00,
2013-05-19 14:10:00,66.6,56.1,30.01,NW,315,10.0,21.0,69,0.00,,,0.00,VWS V14.01,2013-05-19 12:10:00,
2013-05-19 14:12:00,66.4,55.5,30.01,West,275,11.0,21.0,68,0.00,,,0.00,VWS V14.01,2013-05-19 12:12:00,
2013-05-19 14:17:00,66.4,54.3,30.00,WSW,257,16.0,19.0,65,0.00,,,0.00,VWS V14.01,2013-05-19 12:17:00,
2013-05-19 14:20:00,65.8,54.5,30.00,WNW,285,15.0,21.0,67,0.00,,,0.00,VWS V14.01,2013-05-19 12:20:00,
2013-05-19 14:22:00,65.8,54.1,30.00,West,273,13.0,21.0,66,0.00,,,0.00,VWS V14.01,2013-05-19 12:22:00,
2013-05-19 14:27:00,65.5,54.3,30.00,West,274,8.0,20.0,67,0.00,,,0.00,VWS V14.01,2013-05-19 12:27:00,
2013-05-19 14:30:00,66.6,54.1,30.01,NNW,335,5.0,20.0,64,0.00,,,0.00,VWS V14.01,2013-05-19 12:30:00,
2013-05-19 14:32:00,67.0,54.9,30.01,WNW,303,19.0,20.0,65,0.00,,,0.00,VWS V14.01,2013-05-19 12:32:00,
2013-05-19 14:37:00,66.1,54.8,30.01,WNW,300,9.0,23.0,67,0.00,,,0.00,VWS V14.01,2013-05-19 12:37:00,
2013-05-19 14:40:00,66.0,53.9,30.01,WNW,292,12.0,23.0,65,0.00,,,0.00,VWS V14.01,2013-05-19 12:40:00,
2013-05-19 14:42:00,66.1,54.0,30.01,WNW,301,10.0,23.0,65,0.00,,,0.00,VWS V14.01,2013-05-19 12:42:00,
2013-05-19 14:47:00,66.4,54.3,30.01,WNW,290,12.0,22.0,65,0.00,,,0.00,VWS V14.01,2013-05-19 12:47:00,
2013-05-19 14:50:00,65.9,53.4,30.01,WNW,297,13.0,22.0,64,0.00,,,0.00,VWS V14.01,2013-05-19 12:50:00,
2013-05-19 14:52:00,66.0,53.5,30.01,WNW,299,12.0,22.0,64,0.00,,,0.00,VWS V14.01,2013-05-19 12:52:00,
2013-05-19 14:57:00,66.9,54.3,30.01,WNW,284,12.0,19.0,64,0.00,,,0.00,VWS V14.01,2013-05-19 12:57:00,
2013-05-19 15:00:00,67.2,54.6,30.01,WNW,290,7.0,19.0,64,0.00,,,0.00,VWS V14.01,2013-05-19 13:00:00,
2013-05-19 15:02:00,67.1,54.5,30.01,NW,313,4.0,19.0,64,0.00,,,0.00,VWS V14.01,2013-05-19 13:02:00,
2013-05-19 15:07:00,66.9,53.9,30.01,NW,305,4.0,20.0,63,0.00,,,0.00,VWS V14.01,2013-05-19 13:07:00,
2013-05-19 15:10:00,66.7,54.2,30.01,West,272,12.0,21.0,64,0.00,,,0.00,VWS V14.01,2013-05-19 13:10:00,
2013-05-19 15:12:00,66.7,54.2,30.01,West,260,11.0,21.0,64,0.00,,,0.00,VWS V14.01,2013-05-19 13:12:00,
2013-05-19 15:17:00,66.1,53.6,30.01,West,271,9.0,17.0,64,0.00,,,0.00,VWS V14.01,2013-05-19 13:17:00,
2013-05-19 15:20:00,66.9,54.3,30.01,WNW,282,15.0,17.0,64,0.00,,,0.00,VWS V14.01,2013-05-19 13:20:00,
2013-05-19 15:22:00,67.2,54.6,30.01,WNW,286,8.0,17.0,64,0.00,,,0.00,VWS V14.01,2013-05-19 13:22:00,
2013-05-19 15:27:00,66.3,53.8,30.01,West,271,18.0,18.0,64,0.00,,,0.00,VWS V14.01,2013-05-19 13:27:00,
2013-05-19 15:30:00,66.2,54.1,30.01,West,259,10.0,20.0,65,0.00,,,0.00,VWS V14.01,2013-05-19 13:30:00,
2013-05-19 15:32:00,66.1,54.0,30.01,West,261,8.0,20.0,65,0.00,,,0.00,VWS V14.01,2013-05-19 13:32:00,
2013-05-19 15:37:00,66.1,54.4,30.01,WNW,302,14.0,22.0,66,0.00,,,0.00,VWS V14.01,2013-05-19 13:37:00,
2013-05-19 15:40:00,66.3,53.8,30.01,West,277,9.0,22.0,64,0.00,,,0.00,VWS V14.01,2013-05-19 13:40:00,
2013-05-19 15:42:00,66.2,54.5,30.01,West,259,10.0,22.0,66,0.00,,,0.00,VWS V14.01,2013-05-19 13:42:00,
2013-05-19 15:47:00,65.7,52.8,30.01,West,269,14.0,17.0,63,0.00,,,0.00,VWS V14.01,2013-05-19 13:47:00,
2013-05-19 15:50:00,65.4,53.3,30.01,West,281,11.0,21.0,65,0.00,,,0.00,VWS V14.01,2013-05-19 13:50:00,
2013-05-19 15:52:00,65.6,53.1,30.01,West,263,15.0,21.0,64,0.00,,,0.00,VWS V14.01,2013-05-19 13:52:00,
2013-05-19 15:56:00,65.2,53.6,30.01,WNW,284,12.0,19.0,66,0.00,,,0.00,VWS V14.01,2013-05-19 13:56:00,
2013-05-19 16:00:00,65.6,54.0,30.01,West,266,14.0,23.0,66,0.00,,,0.00,VWS V14.01,2013-05-19 14:00:00,
2013-05-19 16:01:00,65.3,53.7,30.01,WSW,251,10.0,23.0,66,0.00,,,0.00,VWS V14.01,2013-05-19 14:01:00,
2013-05-19 16:06:00,66.0,54.3,30.00,SW,236,11.0,20.0,66,0.00,,,0.00,VWS V14.01,2013-05-19 14:06:00,
2013-05-19 16:10:00,66.8,54.7,30.01,WSW,247,10.0,20.0,65,0.00,,,0.00,VWS V14.01,2013-05-19 14:10:00,
2013-05-19 16:12:00,66.8,54.7,30.01,WSW,252,5.0,20.0,65,0.00,,,0.00,VWS V14.01,2013-05-19 14:12:00,
2013-05-19 16:16:00,66.4,54.3,30.01,West,277,16.0,16.0,65,0.00,,,0.00,VWS V14.01,2013-05-19 14:16:00,
2013-05-19 16:20:00,66.7,53.7,30.01,West,277,10.0,18.0,63,0.00,,,0.00,VWS V14.01,2013-05-19 14:20:00,
2013-05-19 16:21:00,66.7,54.2,30.01,WNW,302,10.0,18.0,64,0.00,,,0.00,VWS V14.01,2013-05-19 14:21:00,
2013-05-19 16:26:00,65.7,53.2,30.01,WNW,298,11.0,19.0,64,0.00,,,0.00,VWS V14.01,2013-05-19 14:26:00,
2013-05-19 16:30:00,65.8,53.3,30.01,WNW,303,10.0,19.0,64,0.00,,,0.00,VWS V14.01,2013-05-19 14:30:00,
2013-05-19 16:31:00,65.9,53.4,30.01,WSW,255,6.0,19.0,64,0.00,,,0.00,VWS V14.01,2013-05-19 14:31:00,
2013-05-19 16:36:00,65.9,53.0,30.01,WSW,250,10.0,19.0,63,0.00,,,0.00,VWS V14.01,2013-05-19 14:36:00,
2013-05-19 16:40:00,65.5,53.0,30.01,SW,236,13.0,19.0,64,0.00,,,0.00,VWS V14.01,2013-05-19 14:40:00,
2013-05-19 16:41:00,65.3,52.4,30.01,WSW,256,8.0,19.0,63,0.00,,,0.00,VWS V14.01,2013-05-19 14:41:00,
2013-05-19 16:46:00,66.1,53.6,30.01,WNW,290,15.0,15.0,64,0.00,,,0.00,VWS V14.01,2013-05-19 14:46:00,
2013-05-19 16:50:00,65.5,53.4,30.01,WNW,289,12.0,17.0,65,0.00,,,0.00,VWS V14.01,2013-05-19 14:50:00,
2013-05-19 16:52:00,65.5,53.4,30.01,WNW,287,6.0,17.0,65,0.00,,,0.00,VWS V14.01,2013-05-19 14:52:00,
2013-05-19 16:57:00,65.2,52.7,30.01,WNW,292,15.0,20.0,64,0.00,,,0.00,VWS V14.01,2013-05-19 14:57:00,
2013-05-19 17:00:00,65.5,52.6,30.01,West,280,11.0,20.0,63,0.00,,,0.00,VWS V14.01,2013-05-19 15:00:00,
2013-05-19 17:02:00,65.5,53.0,30.01,West,266,13.0,20.0,64,0.00,,,0.00,VWS V14.01,2013-05-19 15:02:00,
2013-05-19 17:07:00,65.7,52.8,30.01,SW,234,9.0,15.0,63,0.00,,,0.00,VWS V14.01,2013-05-19 15:07:00,
2013-05-19 17:10:00,66.1,51.4,30.01,WSW,252,9.0,17.0,59,0.00,,,0.00,VWS V14.01,2013-05-19 15:10:00,
2013-05-19 17:12:00,66.0,51.7,30.01,WNW,298,5.0,17.0,60,0.00,,,0.00,VWS V14.01,2013-05-19 15:12:00,
2013-05-19 17:17:00,66.0,51.7,30.01,WNW,288,11.0,16.0,60,0.00,,,0.00,VWS V14.01,2013-05-19 15:17:00,
2013-05-19 17:20:00,65.4,52.5,30.01,WNW,284,15.0,18.0,63,0.00,,,0.00,VWS V14.01,2013-05-19 15:20:00,
2013-05-19 17:22:00,65.4,52.1,30.01,WSW,258,9.0,18.0,62,0.00,,,0.00,VWS V14.01,2013-05-19 15:22:00,
2013-05-19 17:27:00,65.4,52.9,30.01,WSW,246,7.0,17.0,64,0.00,,,0.00,VWS V14.01,2013-05-19 15:27:00,
2013-05-19 17:30:00,65.5,53.0,30.01,NNW,336,7.0,18.0,64,0.00,,,0.00,VWS V14.01,2013-05-19 15:30:00,
2013-05-19 17:32:00,65.5,53.0,30.01,West,277,13.0,18.0,64,0.00,,,0.00,VWS V14.01,2013-05-19 15:32:00,
2013-05-19 17:37:00,65.6,53.5,30.01,WNW,293,10.0,16.0,65,0.00,,,0.00,VWS V14.01,2013-05-19 15:37:00,
2013-05-19 17:40:00,66.0,53.1,30.01,WNW,290,10.0,19.0,63,0.00,,,0.00,VWS V14.01,2013-05-19 15:40:00,
2013-05-19 17:42:00,66.1,53.2,30.01,West,277,14.0,19.0,63,0.00,,,0.00,VWS V14.01,2013-05-19 15:42:00,
2013-05-19 17:47:00,66.0,53.5,30.01,West,263,9.0,15.0,64,0.00,,,0.00,VWS V14.01,2013-05-19 15:47:00,
2013-05-19 17:50:00,65.8,53.3,30.01,West,271,5.0,16.0,64,0.00,,,0.00,VWS V14.01,2013-05-19 15:50:00,
2013-05-19 17:52:00,65.7,52.8,30.01,West,271,2.0,16.0,63,0.00,,,0.00,VWS V14.01,2013-05-19 15:52:00,
2013-05-19 17:57:00,66.2,52.8,30.01,WNW,302,2.0,13.0,62,0.00,,,0.00,VWS V14.01,2013-05-19 15:57:00,
2013-05-19 18:00:00,65.4,50.7,30.01,WNW,282,10.0,19.0,59,0.00,,,0.00,VWS V14.01,2013-05-19 16:00:00,
2013-05-19 18:02:00,65.4,50.2,30.01,NW,317,6.0,19.0,58,0.00,,,0.00,VWS V14.01,2013-05-19 16:02:00,
2013-05-19 18:07:00,65.7,51.5,30.01,WNW,290,8.0,16.0,60,0.00,,,0.00,VWS V14.01,2013-05-19 16:07:00,
2013-05-19 18:10:00,65.5,50.3,30.01,West,263,13.0,19.0,58,0.00,,,0.00,VWS V14.01,2013-05-19 16:10:00,
2013-05-19 18:12:00,65.4,49.8,30.01,West,273,9.0,19.0,57,0.00,,,0.00,VWS V14.01,2013-05-19 16:12:00,
2013-05-19 18:17:00,65.3,52.0,30.01,WNW,296,14.0,17.0,62,0.00,,,0.00,VWS V14.01,2013-05-19 16:17:00,
2013-05-19 18:20:00,65.1,52.2,30.01,West,274,8.0,17.0,63,0.00,,,0.00,VWS V14.01,2013-05-19 16:20:00,
2013-05-19 18:22:00,65.0,51.7,30.01,WSW,250,9.0,17.0,62,0.00,,,0.00,VWS V14.01,2013-05-19 16:22:00,
2013-05-19 18:27:00,65.4,52.1,30.01,WNW,292,12.0,13.0,62,0.00,,,0.00,VWS V14.01,2013-05-19 16:27:00,
2013-05-19 18:30:00,64.9,52.0,30.01,WNW,288,4.0,16.0,63,0.00,,,0.00,VWS V14.01,2013-05-19 16:30:00,
2013-05-19 18:32:00,65.0,52.1,30.01,WNW,301,11.0,16.0,63,0.00,,,0.00,VWS V14.01,2013-05-19 16:32:00,
2013-05-19 18:36:00,65.0,51.7,30.01,NW,314,7.0,15.0,62,0.00,,,0.00,VWS V14.01,2013-05-19 16:36:00,
2013-05-19 18:40:00,64.4,52.4,30.01,West,279,9.0,17.0,65,0.00,,,0.00,VWS V14.01,2013-05-19 16:40:00,
2013-05-19 18:42:00,64.4,52.0,30.01,WNW,284,13.0,17.0,64,0.00,,,0.00,VWS V14.01,2013-05-19 16:42:00,
2013-05-19 18:46:00,64.7,53.1,30.01,West,267,5.0,13.0,66,0.00,,,0.00,VWS V14.01,2013-05-19 16:46:00,
2013-05-19 18:50:00,64.8,52.3,30.01,West,273,9.0,15.0,64,0.00,,,0.00,VWS V14.01,2013-05-19 16:50:00,
2013-05-19 18:51:00,64.9,52.9,30.01,West,275,11.0,15.0,65,0.00,,,0.00,VWS V14.01,2013-05-19 16:51:00,
2013-05-19 18:56:00,64.7,51.8,30.01,West,277,14.0,14.0,63,0.00,,,0.00,VWS V14.01,2013-05-19 16:56:00,
2013-05-19 19:00:00,64.6,52.6,30.01,West,270,7.0,15.0,65,0.00,,,0.00,VWS V14.01,2013-05-19 17:00:00,
2013-05-19 19:01:00,64.6,52.2,30.01,West,274,5.0,15.0,64,0.00,,,0.00,VWS V14.01,2013-05-19 17:01:00,
2013-05-19 19:06:00,64.9,52.5,30.02,West,271,12.0,12.0,64,0.00,,,0.00,VWS V14.01,2013-05-19 17:06:00,
2013-05-19 19:10:00,64.7,52.3,30.02,NW,306,15.0,15.0,64,0.00,,,0.00,VWS V14.01,2013-05-19 17:10:00,
2013-05-19 19:11:00,64.7,52.7,30.02,West,272,4.0,15.0,65,0.00,,,0.00,VWS V14.01,2013-05-19 17:11:00,
2013-05-19 19:16:00,64.3,51.5,30.02,WNW,283,12.0,15.0,63,0.00,,,0.00,VWS V14.01,2013-05-19 17:16:00,
2013-05-19 19:20:00,64.3,52.3,30.02,WNW,291,6.0,18.0,65,0.00,,,0.00,VWS V14.01,2013-05-19 17:20:00,
2013-05-19 19:21:00,64.3,52.3,30.02,WNW,302,13.0,18.0,65,0.00,,,0.00,VWS V14.01,2013-05-19 17:21:00,
2013-05-19 19:26:00,64.4,52.8,30.02,WNW,292,10.0,13.0,66,0.00,,,0.00,VWS V14.01,2013-05-19 17:26:00,
2013-05-19 19:30:00,64.4,52.4,30.02,WSW,256,11.0,13.0,65,0.00,,,0.00,VWS V14.01,2013-05-19 17:30:00,
2013-05-19 19:31:00,64.4,52.4,30.02,West,273,4.0,13.0,65,0.00,,,0.00,VWS V14.01,2013-05-19 17:31:00,
2013-05-19 19:36:00,64.2,51.4,30.02,WNW,301,14.0,16.0,63,0.00,,,0.00,VWS V14.01,2013-05-19 17:36:00,
2013-05-19 19:40:00,64.0,51.6,30.02,West,267,11.0,16.0,64,0.00,,,0.00,VWS V14.01,2013-05-19 17:40:00,
2013-05-19 19:41:00,64.0,51.6,30.02,West,261,13.0,16.0,64,0.00,,,0.00,VWS V14.01,2013-05-19 17:41:00,
2013-05-19 19:46:00,64.0,51.2,30.02,WNW,288,5.0,12.0,63,0.00,,,0.00,VWS V14.01,2013-05-19 17:46:00,
2013-05-19 19:50:00,63.8,51.0,30.03,NW,306,12.0,14.0,63,0.00,,,0.00,VWS V14.01,2013-05-19 17:50:00,
2013-05-19 19:51:00,63.9,51.1,30.03,NW,309,10.0,14.0,63,0.00,,,0.00,VWS V14.01,2013-05-19 17:51:00,
2013-05-19 19:56:00,63.7,50.9,30.03,West,275,3.0,15.0,63,0.00,,,0.00,VWS V14.01,2013-05-19 17:56:00,
2013-05-19 20:00:00,63.7,50.9,30.02,West,273,6.0,15.0,63,0.00,,,0.00,VWS V14.01,2013-05-19 18:00:00,
2013-05-19 20:01:00,63.7,50.9,30.02,WSW,254,4.0,15.0,63,0.00,,,0.00,VWS V14.01,2013-05-19 18:01:00,
2013-05-19 20:06:00,63.6,50.8,30.02,West,272,8.0,14.0,63,0.00,,,0.00,VWS V14.01,2013-05-19 18:06:00,
2013-05-19 20:10:00,63.5,50.7,30.02,WNW,292,9.0,14.0,63,0.00,,,0.00,VWS V14.01,2013-05-19 18:10:00,
2013-05-19 20:11:00,63.5,50.7,30.02,WNW,290,13.0,14.0,63,0.00,,,0.00,VWS V14.01,2013-05-19 18:11:00,
2013-05-19 20:16:00,63.5,50.7,30.03,WNW,295,5.0,15.0,63,0.00,,,0.00,VWS V14.01,2013-05-19 18:16:00,
2013-05-19 20:20:00,63.4,50.6,30.02,West,275,4.0,15.0,63,0.00,,,0.00,VWS V14.01,2013-05-19 18:20:00,
2013-05-19 20:21:00,63.4,50.6,30.03,West,263,14.0,15.0,63,0.00,,,0.00,VWS V14.01,2013-05-19 18:21:00,
2013-05-19 20:26:00,63.4,51.0,30.02,WNW,288,15.0,15.0,64,0.00,,,0.00,VWS V14.01,2013-05-19 18:26:00,
2013-05-19 20:30:00,63.3,50.5,30.03,WNW,298,10.0,15.0,63,0.00,,,0.00,VWS V14.01,2013-05-19 18:30:00,
2013-05-19 20:31:00,63.3,50.5,30.03,West,261,12.0,15.0,63,0.00,,,0.00,VWS V14.01,2013-05-19 18:31:00,
2013-05-19 20:36:00,63.4,51.0,30.03,West,273,10.0,16.0,64,0.00,,,0.00,VWS V14.01,2013-05-19 18:36:00,
2013-05-19 20:40:00,63.2,51.2,30.03,WNW,283,6.0,16.0,65,0.00,,,0.00,VWS V14.01,2013-05-19 18:40:00,
2013-05-19 20:41:00,63.3,51.3,30.03,West,279,6.0,16.0,65,0.00,,,0.00,VWS V14.01,2013-05-19 18:41:00,
2013-05-19 20:46:00,63.0,51.1,30.03,West,281,6.0,9.0,65,0.00,,,0.00,VWS V14.01,2013-05-19 18:46:00,
2013-05-19 20:50:00,63.1,51.2,30.03,WNW,290,8.0,14.0,65,0.00,,,0.00,VWS V14.01,2013-05-19 18:50:00,
2013-05-19 20:51:00,63.1,51.2,30.03,WNW,292,11.0,14.0,65,0.00,,,0.00,VWS V14.01,2013-05-19 18:51:00,
2013-05-19 20:56:00,63.1,50.7,30.03,West,281,12.0,17.0,64,0.00,,,0.00,VWS V14.01,2013-05-19 18:56:00,
2013-05-19 21:00:00,63.1,50.7,30.03,West,281,10.0,17.0,64,0.00,,,0.00,VWS V14.01,2013-05-19 19:00:00,
2013-05-19 21:01:00,63.1,50.7,30.04,WNW,286,7.0,17.0,64,0.00,,,0.00,VWS V14.01,2013-05-19 19:01:00,
2013-05-19 21:06:00,63.1,51.2,30.04,NW,315,5.0,11.0,65,0.00,,,0.00,VWS V14.01,2013-05-19 19:06:00,
2013-05-19 21:10:00,62.9,50.5,30.04,West,280,6.0,11.0,64,0.00,,,0.00,VWS V14.01,2013-05-19 19:10:00,
2013-05-19 21:11:00,62.9,50.5,30.04,West,278,7.0,11.0,64,0.00,,,0.00,VWS V14.01,2013-05-19 19:11:00,
2013-05-19 21:16:00,62.7,50.8,30.04,NW,306,8.0,13.0,65,0.00,,,0.00,VWS V14.01,2013-05-19 19:16:00,
2013-05-19 21:20:00,63.0,50.2,30.04,WNW,296,15.0,15.0,63,0.00,,,0.00,VWS V14.01,2013-05-19 19:20:00,
2013-05-19 21:21:00,62.9,50.5,30.04,NW,314,10.0,14.0,64,0.00,,,0.00,VWS V14.01,2013-05-19 19:21:00,
2013-05-19 21:26:00,63.0,50.2,30.04,West,279,8.0,15.0,63,0.00,,,0.00,VWS V14.01,2013-05-19 19:26:00,
2013-05-19 21:30:00,63.0,50.2,30.04,NW,311,7.0,15.0,63,0.00,,,0.00,VWS V14.01,2013-05-19 19:30:00,
2013-05-19 21:31:00,63.1,50.3,30.05,WNW,290,7.0,15.0,63,0.00,,,0.00,VWS V14.01,2013-05-19 19:31:00,
2013-05-19 21:36:00,63.0,50.2,30.05,WNW,302,4.0,13.0,63,0.00,,,0.00,VWS V14.01,2013-05-19 19:36:00,
2013-05-19 21:40:00,62.8,50.5,30.05,NW,305,8.0,13.0,64,0.00,,,0.00,VWS V14.01,2013-05-19 19:40:00,
2013-05-19 21:41:00,62.7,50.4,30.05,WNW,284,8.0,13.0,64,0.00,,,0.00,VWS V14.01,2013-05-19 19:41:00,
2013-05-19 21:46:00,62.7,50.8,30.05,NW,315,2.0,10.0,65,0.00,,,0.00,VWS V14.01,2013-05-19 19:46:00,
2013-05-19 21:50:00,62.7,51.2,30.06,WNW,287,9.0,14.0,66,0.00,,,0.00,VWS V14.01,2013-05-19 19:50:00,
2013-05-19 21:51:00,62.7,51.2,30.05,WNW,284,7.0,14.0,66,0.00,,,0.00,VWS V14.01,2013-05-19 19:51:00,
2013-05-19 21:56:00,62.7,51.6,30.05,WNW,292,8.0,12.0,67,0.00,,,0.00,VWS V14.01,2013-05-19 19:56:00,
2013-05-19 22:00:00,62.8,52.1,30.05,WNW,284,8.0,13.0,68,0.00,,,0.00,VWS V14.01,2013-05-19 20:00:00,
2013-05-19 22:01:00,62.8,51.7,30.05,West,281,10.0,13.0,67,0.00,,,0.00,VWS V14.01,2013-05-19 20:01:00,
2013-05-19 22:06:00,62.9,52.2,30.05,WNW,289,11.0,11.0,68,0.00,,,0.00,VWS V14.01,2013-05-19 20:06:00,
2013-05-19 22:10:00,62.8,52.5,30.06,West,270,9.0,12.0,69,0.00,,,0.00,VWS V14.01,2013-05-19 20:10:00,
2013-05-19 22:11:00,62.8,52.5,30.06,WNW,284,9.0,12.0,69,0.00,,,0.00,VWS V14.01,2013-05-19 20:11:00,
2013-05-19 22:16:00,62.8,52.5,30.06,WNW,292,8.0,12.0,69,0.00,,,0.00,VWS V14.01,2013-05-19 20:16:00,
2013-05-19 22:20:00,62.8,52.5,30.06,WNW,289,6.0,12.0,69,0.00,,,0.00,VWS V14.01,2013-05-19 20:20:00,
2013-05-19 22:21:00,62.9,52.6,30.06,WNW,292,9.0,12.0,69,0.00,,,0.00,VWS V14.01,2013-05-19 20:21:00,
2013-05-19 22:26:00,62.7,52.4,30.06,NW,317,2.0,9.0,69,0.00,,,0.00,VWS V14.01,2013-05-19 20:26:00,
2013-05-19 22:30:00,62.4,52.1,30.06,NW,304,3.0,9.0,69,0.00,,,0.00,VWS V14.01,2013-05-19 20:30:00,
2013-05-19 22:31:00,62.5,52.2,30.06,NW,304,3.0,9.0,69,0.00,,,0.00,VWS V14.01,2013-05-19 20:31:00,
2013-05-19 22:36:00,62.2,52.3,30.06,WNW,300,6.0,9.0,70,0.00,,,0.00,VWS V14.01,2013-05-19 20:36:00,
2013-05-19 22:40:00,62.5,52.2,30.06,West,279,6.0,12.0,69,0.00,,,0.00,VWS V14.01,2013-05-19 20:40:00,
2013-05-19 22:41:00,62.5,52.6,30.06,WNW,286,7.0,12.0,70,0.00,,,0.00,VWS V14.01,2013-05-19 20:41:00,
2013-05-19 22:46:00,62.6,52.3,30.06,WNW,288,4.0,8.0,69,0.00,,,0.00,VWS V14.01,2013-05-19 20:46:00,
2013-05-19 22:50:00,62.4,52.1,30.06,WNW,302,1.0,10.0,69,0.00,,,0.00,VWS V14.01,2013-05-19 20:50:00,
2013-05-19 22:51:00,62.5,52.2,30.06,WNW,302,3.0,10.0,69,0.00,,,0.00,VWS V14.01,2013-05-19 20:51:00,
2013-05-19 22:56:00,62.2,51.9,30.07,WNW,284,7.0,8.0,69,0.00,,,0.00,VWS V14.01,2013-05-19 20:56:00,
2013-05-19 23:00:00,62.1,51.8,30.06,WNW,299,3.0,8.0,69,0.00,,,0.00,VWS V14.01,2013-05-19 21:00:00,
2013-05-19 23:01:00,62.1,51.8,30.07,West,280,5.0,8.0,69,0.00,,,0.00,VWS V14.01,2013-05-19 21:01:00,
2013-05-19 23:06:00,61.9,51.6,30.07,NNE,14,3.0,6.0,69,0.00,,,0.00,VWS V14.01,2013-05-19 21:06:00,
2013-05-19 23:10:00,61.7,51.8,30.07,NNE,13,3.0,6.0,70,0.00,,,0.00,VWS V14.01,2013-05-19 21:10:00,
2013-05-19 23:11:00,61.7,51.8,30.07,NNE,13,2.0,6.0,70,0.00,,,0.00,VWS V14.01,2013-05-19 21:11:00,
2013-05-19 23:16:00,61.5,51.6,30.07,NNE,13,3.0,4.0,70,0.00,,,0.00,VWS V14.01,2013-05-19 21:16:00,
2013-05-19 23:20:00,61.4,51.9,30.07,NNE,13,3.0,5.0,71,0.00,,,0.00,VWS V14.01,2013-05-19 21:20:00,
2013-05-19 23:21:00,61.4,51.9,30.07,NNE,13,5.0,5.0,71,0.00,,,0.00,VWS V14.01,2013-05-19 21:21:00,
2013-05-19 23:26:00,61.7,51.8,30.07,NW,306,1.0,6.0,70,0.00,,,0.00,VWS V14.01,2013-05-19 21:26:00,
2013-05-19 23:30:00,61.6,51.7,30.07,NW,306,3.0,6.0,70,0.00,,,0.00,VWS V14.01,2013-05-19 21:30:00,
2013-05-19 23:31:00,61.6,51.7,30.07,NW,306,4.0,6.0,70,0.00,,,0.00,VWS V14.01,2013-05-19 21:31:00,
2013-05-19 23:36:00,61.5,51.6,30.07,NNW,329,4.0,5.0,70,0.00,,,0.00,VWS V14.01,2013-05-19 21:36:00,
2013-05-19 23:40:00,61.4,51.5,30.07,NNW,329,1.0,5.0,70,0.00,,,0.00,VWS V14.01,2013-05-19 21:40:00,
2013-05-19 23:41:00,61.3,51.5,30.07,NNW,329,3.0,5.0,70,0.00,,,0.00,VWS V14.01,2013-05-19 21:41:00,
2013-05-19 23:46:00,61.6,51.7,30.07,NW,307,3.0,5.0,70,0.00,,,0.00,VWS V14.01,2013-05-19 21:46:00,
2013-05-19 23:50:00,61.3,51.5,30.07,NW,309,3.0,5.0,70,0.00,,,0.00,VWS V14.01,2013-05-19 21:50:00,
2013-05-19 23:51:00,61.3,51.5,30.07,NW,309,3.0,5.0,70,0.00,,,0.00,VWS V14.01,2013-05-19 21:51:00,
2013-05-19 23:56:00,61.4,51.5,30.07,NW,309,2.0,4.0,70,0.00,,,0.00,VWS V14.01,2013-05-19 21:56:00,